Wind_Speed
10 5 3 5 6 7 8 8 8 7 6 5 4 4 3 2 3 4 3 7 4 3 1 5 7 7 9 11 11 16 13 5 7 12 8 10 19 26 24 23 23 20 21 20 19 19 18 18 17 17 16 16 17 17 17 16 16 15 14 14 13 13 12 11 11 9 8 6 4 4 4 4 5 5 5 6 6 6 6 7 8 9 10 11 11 11
8 6 5 6 7 9 8 8 8 6 5 4 5 3 1 1 4 4 1 7 5 1 2 3 8 8 11 10 10 14 11 8 15 20 19 15 14 24 27 24 22 20 20 21 19 19 19 19 18 17 17 17 17 17 17 17 16 15 14 13 13 12 11 11 10 9 7 5 4 3 4 5 6 6 6 6 7 7 7 8 9 11 12 12 12 13
4 4 6 6 6 7 5 6 8 7 5 3 3 4 0 2 4 4 2 6 4 2 3 0 6 6 7 7 11 15 13 14 19 19 25 24 16 21 28 24 21 20 20 20 20 20 20 19 19 19 18 18 17 17 17 17 15 15 14 13 12 11 11 10 9 8 6 4 3 2 3 4 5 7 7 7 7 7 7 8 10 12 13 15 15 16
4 5 7 6 6 8 5 4 8 6 4 4 4 4 2 3 1 2 2 6 5 2 1 3 4 1 1 3 7 11 9 6 6 7 15 23 16 14 21 24 22 22 22 21 21 22 20 20 20 19 19 18 17 17 16 16 15 15 14 13 12 10 9 8 7 6 5 3 1 1 2 4 5 7 8 7 7 8 9 10 12 14 15 16 18 18
4 5 8 9 7 9 6 5 8 6 3 2 4 5 4 3 3 3 2 4 5 5 2 6 5 5 1 5 4 3 4 5 5 4 7 12 11 7 8 16 23 22 22 23 23 23 22 21 21 20 19 18 17 17 15 15 14 14 14 13 12 10 8 8 6 5 4 3 2 2 2 3 4 5 6 7 7 9 10 11 13 16 18 18 19 20
5 4 11 11 6 8 7 5 6 7 4 2 4 6 7 5 5 2 4 5 5 5 2 4 2 4 3 5 6 4 5 6 6 7 6 7 11 11 8 9 18 21 21 23 23 24 22 22 22 20 19 18 18 17 15 14 13 13 13 13 12 10 9 7 6 6 5 4 3 1 0 1 2 3 6 8 9 11 13 14 16 19 20 20 20 20
4 4 9 9 7 8 7 5 5 7 6 2 5 7 7 7 5 2 3 3 2 1 2 3 3 3 4 4 6 6 7 7 5 8 11 13 15 19 17 14 16 21 22 23 23 24 23 22 22 21 19 18 18 16 15 14 14 13 14 14 12 10 8 7 6 6 5 3 2 1 2 3 3 5 7 10 13 15 16 17 18 19 19 19 19 19
4 7 6 6 8 7 6 5 5 7 8 3 5 8 9 7 7 5 4 3 2 2 4 4 4 2 2 5 4 7 8 6 6 8 11 16 17 22 25 20 18 21 24 24 23 23 24 23 22 21 19 18 17 16 15 15 15 13 13 13 11 9 8 7 6 5 3 2 2 3 4 5 6 7 10 13 15 17 18 18 18 16 16 17 18 19
4 8 7 7 7 5 6 6 8 9 6 5 6 9 9 8 7 6 6 4 1 1 4 5 2 3 4 5 2 8 8 6 9 11 10 14 20 25 26 23 21 22 25 25 23 23 24 23 22 21 19 18 18 17 16 16 15 13 12 12 11 9 8 6 5 4 3 3 4 5 7 7 8 10 12 14 15 16 18 18 17 16 16 17 17 18
3 10 13 10 6 5 5 6 10 11 4 5 6 7 5 4 3 3 5 4 2 2 3 6 2 2 3 4 3 7 8 8 10 11 12 15 23 26 25 25 25 23 24 24 23 23 25 24 22 20 19 18 18 18 17 16 15 13 12 11 10 9 7 5 4 4 4 5 6 8 10 11 11 13 13 14 15 17 18 18 17 17 17 17 17 18
0 8 12 8 6 6 7 6 9 11 7 5 6 5 4 4 4 3 2 4 3 2 5 7 6 4 2 4 4 7 8 12 11 8 10 14 22 26 25 26 25 23 24 24 22 23 24 23 21 20 20 19 18 18 17 15 14 13 11 10 9 8 6 5 5 5 5 7 9 11 12 13 14 14 14 14 16 18 18 17 17 17 18 18 18 18
2 4 4 5 10 9 6 4 5 7 7 6 4 4 2 3 3 4 4 2 3 4 6 5 6 5 3 5 5 6 7 12 13 11 12 15 23 29 27 26 25 23 24 26 24 23 24 24 22 22 22 20 19 17 15 14 13 11 10 8 8 7 6 5 5 6 8 9 12 13 14 15 15 15 15 16 18 20 19 18 19 19 19 18 17 17
2 2 2 2 12 13 7 4 3 2 4 5 5 6 4 1 1 1 2 1 2 5 4 2 3 3 4 6 6 8 8 11 15 16 16 18 24 28 28 27 26 26 27 28 26 25 25 25 23 23 23 21 19 17 15 13 11 10 9 7 7 7 5 6 7 8 11 13 14 15 15 15 15 16 16 18 20 21 20 20 21 21 20 18 16 15
1 4 4 1 5 11 11 7 5 2 4 6 5 6 5 3 3 4 3 0 2 4 2 1 1 2 4 4 3 6 5 6 12 14 15 18 20 23 27 28 26 28 30 28 27 26 25 25 24 23 23 21 19 17 14 12 10 9 9 7 7 7 6 7 9 12 14 15 15 15 15 15 16 17 18 19 20 20 20 20 20 20 19 17 15 15
4 4 5 4 2 8 10 7 6 6 5 5 4 6 5 4 5 4 3 2 3 3 2 2 1 2 2 3 3 3 3 4 13 14 15 20 22 22 27 29 26 28 30 27 26 27 25 24 23 21 22 21 19 17 14 12 10 9 8 8 8 7 8 10 13 14 15 15 16 17 16 15 16 17 18 18 18 18 18 18 17 17 16 15 14 15
6 5 5 6 5 8 9 5 7 9 4 2 3 5 3 5 4 1 3 5 4 2 1 1 1 2 3 3 3 1 2 7 16 19 18 19 23 25 28 31 27 26 30 29 27 28 26 24 24 22 22 21 18 16 14 12 10 8 8 8 8 7 10 13 14 15 15 16 18 18 16 16 16 16 16 16 15 15 16 16 15 15 14 13 13 15
5 3 6 4 5 6 10 10 7 7 4 1 3 5 4 5 6 3 1 0 3 3 1 1 1 1 1 3 0 6 7 7 12 16 18 18 22 24 24 28 28 26 31 31 28 27 25 25 25 23 22 21 19 17 14 11 9 8 7 8 8 10 13 15 15 16 18 20 19 17 15 14 14 13 13 13 13 13 14 15 15 12 12 12 12 14
5 2 5 5 6 7 9 12 7 6 9 5 4 6 3 3 3 2 1 2 4 2 1 1 2 3 1 2 3 8 9 9 10 11 15 16 19 20 18 21 26 28 30 30 29 28 27 27 26 23 22 22 20 18 15 12 10 8 8 10 13 15 17 17 18 19 21 20 17 14 13 13 12 12 11 11 11 11 12 13 11 9 10 12 12 13
4 1 5 5 8 5 4 8 4 4 6 5 5 7 5 3 2 2 2 1 2 2 1 2 3 3 2 2 5 10 11 12 11 9 12 13 15 20 20 20 26 30 29 30 31 31 31 30 28 26 24 21 18 16 13 11 10 10 10 11 14 16 18 20 21 20 18 16 13 13 12 10 10 10 10 11 10 9 10 10 9 7 9 11 11 12
3 3 3 4 6 6 4 4 5 5 1 4 5 6 3 3 4 3 3 3 3 3 1 0 2 3 3 4 7 12 11 12 13 11 13 15 17 24 26 25 28 31 31 32 32 30 31 30 28 26 24 20 16 13 11 9 10 10 10 12 15 18 21 22 20 18 15 13 12 11 10 9 10 10 10 9 8 8 9 8 7 7 9 11 11 11
2 3 1 4 2 6 5 5 7 7 4 4 5 5 3 2 2 2 1 2 4 4 3 2 1 5 5 3 7 11 10 11 14 13 12 16 22 26 27 27 29 32 32 33 33 33 32 29 26 24 22 18 15 12 9 7 7 10 13 17 20 20 19 18 16 15 13 11 10 10 9 9 9 9 8 6 6 7 7 6 7 7 8 10 9 10
2 3 2 1 2 5 5 4 7 11 9 6 5 5 5 3 4 3 1 1 3 4 3 4 2 6 5 2 4 8 8 9 13 12 10 16 24 28 28 28 30 33 33 32 34 35 33 29 26 23 20 16 12 9 8 8 10 13 17 19 18 14 12 11 11 11 10 9 9 8 8 7 6 5 5 4 5 5 4 5 6 6 8 9 9 10
2 4 3 1 3 6 5 1 6 12 12 8 5 4 4 4 5 6 4 3 3 3 1 3 1 4 5 3 3 5 8 11 15 15 14 18 24 28 30 29 30 34 34 32 31 30 29 25 22 19 16 13 10 9 9 9 11 14 14 12 10 8 8 7 7 7 7 8 7 7 7 5 4 3 3 2 2 2 3 5 6 7 9 10 10 11
2 3 3 1 4 3 3 4 3 7 9 6 4 4 5 4 3 5 5 4 4 3 1 2 1 4 5 4 2 10 13 13 16 18 19 21 24 28 31 31 32 34 32 30 28 26 24 21 17 15 13 11 10 11 9 9 10 11 9 6 6 6 7 6 5 5 6 6 7 6 5 4 2 1 1 1 1 2 4 6 7 8 10 12 11 12
3 1 3 3 1 3 2 2 3 3 5 4 4 4 6 5 6 4 3 4 3 5 5 4 2 5 4 2 5 11 12 12 14 19 22 22 23 28 31 31 33 33 30 28 26 23 21 19 16 15 12 11 11 11 10 9 9 8 7 6 6 7 8 8 6 6 6 7 7 6 4 4 4 3 2 2 2 4 5 8 10 11 12 12 13 13
5 3 3 5 4 3 4 5 3 4 4 2 3 6 7 8 9 5 3 4 3 4 4 5 4 4 2 3 7 9 10 9 13 20 23 24 24 27 30 31 31 32 31 28 26 23 22 19 17 14 12 11 12 12 11 10 8 8 9 9 8 9 9 8 6 5 6 6 6 6 6 6 5 4 3 3 4 6 9 12 13 12 12 12 13 13
3 1 4 5 5 5 5 7 5 3 5 3 5 8 8 8 9 7 5 4 5 5 3 4 5 5 6 7 7 9 11 10 11 17 22 26 27 28 30 32 31 32 32 29 27 26 23 19 16 15 14 13 13 13 11 10 10 11 12 10 8 9 8 7 5 5 6 6 7 8 7 6 5 5 6 7 10 12 14 14 12 11 11 11 11 11
4 2 5 4 3 4 5 6 5 2 5 7 8 10 8 7 8 8 6 6 6 7 3 6 5 9 10 10 9 11 14 12 11 16 21 26 29 29 30 31 31 32 32 31 28 24 21 19 19 19 16 14 14 13 12 12 13 13 11 9 9 8 6 6 5 6 7 8 9 9 8 8 8 8 11 13 14 15 14 12 11 11 11 10 10 11
5 4 4 3 1 2 2 3 2 2 3 3 6 9 9 9 9 9 7 7 8 8 5 7 10 9 9 12 12 12 13 15 16 20 23 26 29 30 30 30 31 32 31 29 26 23 22 23 23 20 16 15 16 14 13 14 13 11 9 8 7 6 5 6 6 8 9 10 11 10 10 11 12 13 14 15 15 14 12 11 11 10 10 10 11 11
4 4 4 4 3 4 6 6 3 4 3 4 3 2 6 9 9 7 5 4 7 5 4 9 12 5 3 8 10 9 13 17 20 23 25 26 29 31 30 30 30 31 30 29 27 25 24 24 23 20 18 18 17 15 15 14 13 10 9 7 6 6 6 6 8 10 11 13 14 13 14 15 15 15 15 14 13 12 11 10 10 10 10 10 11 11
2 2 2 5 4 5 6 6 6 4 3 5 4 3 3 8 6 5 4 4 5 3 2 9 9 3 3 6 11 15 20 21 21 23 25 26 29 32 31 30 31 32 32 31 29 27 26 25 24 21 20 19 17 15 14 13 11 10 8 8 8 7 6 8 9 11 13 15 16 15 14 15 15 14 14 13 12 11 11 10 10 10 10 10 10 11
4 1 0 5 4 3 4 6 6 5 5 7 5 4 3 6 4 3 3 3 5 7 8 8 5 5 5 8 13 17 21 20 19 22 25 26 30 32 32 32 33 34 34 32 31 30 28 26 24 22 21 20 18 15 13 11 10 8 8 8 7 5 8 10 10 12 14 16 16 15 14 14 14 13 13 12 11 11 10 10 9 9 9 9 10 10
5 4 2 4 5 2 3 4 5 5 6 3 1 1 1 1 2 4 2 1 5 8 9 5 5 6 7 10 12 14 16 18 22 27 30 29 30 31 34 36 36 35 34 32 31 31 29 27 25 23 22 21 18 15 12 10 9 7 7 8 5 5 10 11 11 13 15 16 15 14 14 13 13 13 12 11 11 11 10 9 9 9 9 9 9 9
5 6 3 2 4 2 4 4 3 4 3 4 4 2 3 1 3 4 2 3 4 4 3 3 3 9 12 13 14 15 16 20 25 30 33 35 33 31 32 36 37 36 34 32 31 30 29 27 25 23 22 19 18 17 13 10 8 8 8 8 4 7 12 12 11 13 14 15 14 14 14 13 12 12 12 12 12 11 10 10 10 10 10 9 9 9
6 6 3 1 3 2 2 4 2 1 4 6 5 3 4 4 4 3 1 2 3 1 1 0 4 11 13 13 15 16 17 20 24 27 30 35 36 35 34 36 35 34 32 31 31 30 28 27 25 24 22 19 18 18 15 10 8 8 9 8 5 10 14 13 12 13 14 14 14 13 13 12 11 12 12 12 11 10 10 10 10 11 10 9 9 10
8 5 3 3 3 3 3 3 2 5 5 4 4 2 3 3 3 3 2 2 5 3 3 5 5 7 10 14 17 18 19 21 23 25 31 35 37 37 36 35 34 33 32 32 31 30 28 27 25 24 22 20 19 18 14 10 8 10 11 9 8 13 15 13 12 13 13 14 13 14 14 12 12 12 12 11 10 9 10 10 10 10 10 9 10 11
9 6 4 3 2 3 4 2 2 4 4 3 3 3 4 3 4 5 3 4 5 5 6 8 6 6 12 18 21 23 25 21 14 16 27 32 33 34 34 34 34 33 32 31 31 29 28 26 24 23 22 20 20 17 12 8 9 11 11 10 12 17 15 12 12 13 14 15 15 15 14 13 11 11 10 9 8 9 10 10 10 11 10 9 10 11
5 6 7 4 1 3 5 1 1 2 4 5 5 5 4 3 4 5 3 3 5 7 11 11 9 9 12 17 24 27 24 14 5 11 24 28 28 30 32 32 33 33 32 31 30 28 26 25 25 23 20 19 20 15 9 8 9 11 11 13 17 17 15 14 15 16 17 17 16 15 14 12 10 10 10 10 10 10 11 11 11 12 11 10 11 13
6 4 6 6 2 2 4 3 3 3 5 6 6 5 3 2 3 3 4 3 5 11 18 15 12 13 14 21 28 26 16 7 6 14 26 29 26 28 31 32 32 30 29 30 30 28 26 24 24 22 19 20 19 13 9 9 9 10 13 16 18 17 17 18 18 18 18 17 16 15 13 12 11 10 11 11 12 13 13 13 13 13 12 12 13 15
7 5 4 6 4 4 5 3 3 3 3 3 3 4 4 5 4 6 2 5 6 16 26 24 20 20 22 27 27 20 13 9 11 21 31 30 26 28 31 32 31 30 28 28 27 27 27 26 24 22 20 19 16 13 11 9 9 12 16 18 18 18 19 19 18 18 17 16 16 15 14 13 12 12 12 13 14 14 14 14 14 13 12 13 14 15
4 3 3 4 5 4 5 3 2 4 4 3 4 7 11 8 6 5 5 6 4 15 26 27 26 28 31 32 26 17 10 8 14 29 35 31 28 30 30 30 31 30 30 28 27 28 29 26 23 21 19 17 14 12 11 10 11 16 19 19 19 19 19 19 18 18 17 16 16 15 14 14 13 13 14 14 14 15 15 14 13 12 13 13 13 14
2 2 2 3 4 4 3 3 0 4 4 5 7 9 11 7 2 4 5 5 4 17 22 22 24 28 31 31 23 15 11 12 22 36 36 32 33 34 32 31 32 31 31 31 31 32 30 26 22 20 19 17 14 13 12 12 16 19 20 19 19 20 19 19 19 18 17 17 16 15 15 15 14 14 15 14 13 13 14 13 12 12 12 12 12 13
3 2 1 2 3 2 2 3 2 3 5 12 14 7 5 5 3 4 3 4 6 20 23 21 23 26 28 24 17 16 21 26 33 38 36 35 36 35 34 34 33 32 33 34 34 32 27 24 23 22 20 17 14 12 12 14 18 21 21 20 20 20 19 19 18 18 17 17 17 16 15 15 15 14 14 13 12 12 13 13 12 12 12 11 11 12
1 2 2 3 3 3 2 2 4 4 5 12 11 3 4 6 1 1 0 2 9 19 23 23 24 27 29 24 20 23 29 34 38 39 38 38 38 37 36 35 34 34 35 35 34 29 25 25 25 21 19 17 14 12 13 16 18 21 21 20 20 20 20 19 18 18 18 17 17 16 16 15 14 14 13 12 11 11 12 12 11 12 12 11 11 13
1 1 4 3 2 3 4 5 5 4 3 6 4 2 0 4 2 1 2 7 13 20 24 24 26 29 30 27 25 28 32 36 39 40 40 40 39 38 38 37 36 36 34 32 31 28 27 27 24 20 19 18 15 14 16 17 17 19 20 20 20 20 19 19 19 18 18 17 17 16 15 15 14 13 12 12 11 10 11 11 11 12 12 12 13 14
1 1 3 2 1 2 2 2 2 2 2 2 4 1 1 3 5 4 4 9 16 21 24 26 29 30 31 30 29 31 33 37 39 38 39 41 39 38 38 37 35 34 34 33 32 29 28 27 24 21 21 20 17 17 18 18 17 17 19 20 20 19 19 19 19 18 18 17 16 15 15 14 14 14 13 12 11 10 11 11 11 13 13 13 14 16
1 1 2 2 1 3 2 2 2 1 1 1 3 2 1 4 7 7 7 11 16 21 25 28 31 32 31 31 31 32 36 39 40 39 40 41 40 39 38 37 35 35 35 34 32 30 28 26 24 23 22 20 19 18 19 19 18 19 20 20 20 19 19 18 18 18 17 17 16 15 15 14 14 14 13 13 12 12 13 13 13 14 15 15 15 17
0 1 1 1 2 2 3 4 2 1 1 1 3 4 4 4 5 6 9 12 16 21 25 28 30 33 33 32 32 34 38 41 42 42 42 41 41 40 38 36 37 37 35 33 32 30 28 26 24 23 22 21 21 20 19 19 19 20 20 20 19 19 19 18 18 17 17 16 16 16 15 14 14 15 14 14 14 14 14 15 14 15 16 16 16 16
1 1 1 1 2 1 2 4 2 0 1 2 3 4 4 3 3 5 9 12 17 22 26 28 30 33 34 34 34 36 40 42 43 44 44 43 41 40 39 38 37 36 35 34 32 30 28 26 24 23 22 22 22 20 20 20 20 20 20 20 19 19 19 19 18 17 17 17 16 16 16 15 15 15 15 15 16 16 16 16 15 15 16 16 16 16
1 1 2 3 2 1 3 5 5 3 1 3 5 5 5 4 4 6 10 13 17 22 27 29 30 31 33 34 34 37 41 43 44 44 45 44 42 41 40 39 37 35 34 34 32 30 27 25 23 22 21 21 21 21 21 21 21 21 20 19 19 18 17 18 18 17 17 17 17 17 17 17 17 16 16 16 17 17 18 18 17 15 15 15 16 16
1 3 2 4 4 3 5 10 11 4 0 4 7 7 7 7 6 8 10 13 17 22 27 30 32 31 31 33 35 37 40 42 42 44 45 44 42 41 39 37 36 35 35 34 33 31 28 25 23 22 21 22 22 22 22 22 23 22 21 20 19 17 15 15 17 17 18 18 17 18 17 17 17 17 16 17 16 16 17 17 17 17 16 16 16 17
Wind_Direction
162 160 176 183 184 180 182 172 165 162 149 143 124 117 119 140 263 272 273 291 326 64 140 146 157 166 165 174 158 155 162 140 141 160 202 225 186 183 191 189 188 186 184 185 186 186 182 182 181 178 178 177 176 173 170 170 169 170 173 176 178 181 184 187 190 196 198 200 207 226 250 271 286 306 320 331 334 325 319 314 314 317 320 323 320 315
159 181 204 190 184 173 174 170 151 133 123 110 117 124 64 153 255 271 268 302 322 50 310 107 134 175 178 171 151 149 153 167 178 172 184 220 210 186 188 189 186 186 185 184 184 183 180 181 179 174 173 172 173 171 169 171 171 170 172 175 178 180 183 184 186 189 190 196 214 238 268 289 300 317 329 338 339 334 327 315 310 312 317 323 323 322
166 209 210 189 172 144 138 157 143 138 141 115 112 125 251 243 266 289 323 322 335 84 297 72 132 191 199 163 151 164 179 186 190 184 179 193 211 195 188 185 182 179 179 180 180 181 181 179 174 170 169 169 170 172 171 171 171 172 171 171 174 178 181 181 183 181 181 197 223 263 291 305 316 329 341 348 345 340 338 326 317 314 314 319 321 322
176 234 207 168 138 128 116 133 131 135 147 127 127 138 217 256 250 269 311 324 334 55 166 139 110 284 299 113 146 175 188 171 172 189 180 185 200 203 190 181 176 173 173 177 179 181 180 175 171 170 168 166 170 175 174 172 171 171 168 166 169 176 180 180 180 179 179 184 202 334 332 338 342 343 345 347 341 338 339 331 322 317 316 319 320 322
202 231 170 141 136 147 146 144 136 140 170 182 172 164 186 223 200 208 289 324 347 9 91 101 51 339 340 161 159 144 137 90 98 158 182 189 195 212 209 181 173 173 174 175 178 180 179 174 171 172 169 166 171 175 173 172 172 173 171 169 169 172 176 177 176 174 163 138 93 45 26 5 352 340 330 325 325 327 326 320 315 315 317 319 319 319
228 219 150 141 151 158 152 164 163 153 163 224 221 194 177 175 197 235 358 17 32 1 327 88 72 300 307 202 185 138 134 112 118 164 168 177 182 189 226 204 174 173 176 177 178 180 178 175 174 174 172 169 171 171 167 167 169 171 173 173 170 166 169 173 168 159 145 128 117 102 56 302 297 303 308 314 318 317 317 315 313 315 316 316 316 317
211 170 144 149 156 160 163 179 192 160 139 210 232 190 164 149 166 172 47 56 82 244 279 70 146 246 313 245 195 154 151 135 146 192 183 177 182 185 200 216 188 173 177 178 178 180 177 175 177 176 172 169 169 167 163 164 166 167 169 170 166 160 162 165 162 156 149 147 175 231 269 284 294 306 314 320 321 317 315 311 310 314 315 315 315 316
179 154 147 152 150 158 176 186 198 157 131 224 226 159 151 156 173 177 139 150 201 246 322 10 122 148 287 249 194 147 151 144 169 213 198 180 189 193 193 204 198 179 178 179 177 179 178 177 180 178 173 169 169 167 163 164 167 168 170 168 162 160 165 169 169 169 172 195 241 272 293 305 310 317 322 321 319 314 310 307 309 316 316 315 315 315
168 162 160 150 158 177 181 178 173 152 142 233 202 147 158 174 180 181 161 179 207 64 320 309 132 132 270 270 141 144 160 172 187 210 210 182 189 197 188 188 195 186 181 179 178 180 179 179 182 180 176 173 172 171 167 167 169 171 171 167 164 166 173 177 182 197 220 251 279 292 297 304 309 318 323 319 314 308 306 308 313 317 315 314 315 316
173 183 177 155 170 192 171 163 160 155 173 216 162 122 112 108 109 139 148 152 91 91 245 254 198 149 269 278 136 153 180 195 198 206 208 191 191 197 187 182 188 184 181 181 181 184 181 179 183 181 178 178 179 178 173 173 174 175 174 169 169 174 184 195 208 231 259 286 299 302 301 302 308 316 318 312 307 304 305 309 312 312 313 314 318 319
288 178 181 162 164 170 156 156 165 167 162 143 138 109 72 44 51 69 79 102 103 260 246 227 203 169 264 277 172 174 195 193 196 196 196 194 191 190 184 180 181 176 179 182 183 187 183 182 186 183 182 183 184 183 180 178 178 179 179 178 182 187 197 217 237 258 280 292 297 300 300 301 307 313 312 306 303 302 303 307 310 311 314 318 321 319
328 130 177 170 158 149 131 141 171 174 148 117 112 120 107 331 11 33 3 60 133 250 260 230 199 160 202 255 212 201 195 182 190 190 185 187 184 181 177 175 175 173 178 180 183 187 184 186 191 186 186 188 186 187 185 181 179 183 186 187 197 203 211 237 260 277 286 289 292 296 298 303 311 312 308 305 301 301 305 310 313 316 319 321 321 317
244 174 292 192 169 161 134 130 144 140 145 126 99 113 133 276 352 298 260 192 208 239 254 224 171 159 223 246 228 210 194 185 194 193 188 184 176 173 172 172 171 169 173 178 184 187 186 191 194 188 189 191 190 190 189 186 184 187 190 190 204 218 232 256 274 283 285 286 289 295 302 310 314 310 306 303 301 304 310 314 315 317 320 321 322 320
247 283 286 259 185 171 152 154 165 171 170 160 139 134 146 143 156 222 235 278 258 241 281 342 162 226 260 274 252 225 229 203 185 179 182 179 171 167 167 168 168 167 170 177 183 188 191 194 195 190 190 193 193 195 195 194 194 195 195 198 215 235 249 267 282 286 286 289 291 296 304 309 308 305 301 299 300 305 308 310 312 314 316 318 321 324
169 248 225 188 216 173 165 170 155 140 145 163 151 129 145 158 159 204 209 179 217 231 315 335 195 195 219 292 300 270 283 163 144 140 154 166 167 164 161 163 166 165 171 179 184 188 192 194 193 189 189 193 194 197 201 203 207 206 204 211 222 238 260 276 285 286 286 288 290 297 302 302 301 298 295 296 300 304 304 306 310 311 311 313 318 323
169 231 242 204 193 166 166 165 126 119 124 187 136 121 176 186 141 117 188 173 174 175 347 316 234 211 205 285 313 144 144 137 133 131 139 153 159 158 157 161 165 164 169 178 179 180 186 188 188 187 187 191 192 192 197 201 205 211 219 228 232 249 273 281 282 281 280 280 287 295 296 294 294 293 293 297 301 301 302 305 309 310 308 311 318 320
153 240 275 208 187 183 169 166 155 145 151 166 150 165 199 160 118 104 222 48 87 136 233 313 253 258 288 310 141 133 132 134 134 134 141 153 156 156 153 156 160 158 161 170 173 174 178 179 181 185 182 184 187 184 184 188 194 207 228 246 257 265 270 272 273 275 276 280 288 292 289 286 288 290 293 296 295 295 295 299 308 312 308 311 316 317
147 217 265 177 183 225 182 162 166 156 144 135 184 194 156 101 97 103 180 355 52 142 258 339 216 200 175 290 171 149 145 149 150 141 145 155 154 149 146 148 154 153 153 161 167 171 175 175 177 182 179 175 176 175 176 185 199 210 228 251 262 267 269 272 275 277 277 280 284 282 278 278 282 286 288 288 290 292 295 303 316 319 311 314 316 318
137 144 268 197 176 204 162 142 154 169 148 131 175 183 147 151 204 116 152 195 114 160 279 321 264 227 195 232 185 170 166 158 158 146 146 159 151 143 147 151 152 152 153 156 159 163 168 171 176 180 179 173 169 172 178 189 207 220 233 249 258 265 272 276 278 278 276 276 273 270 270 271 274 279 280 280 284 296 310 325 335 327 316 319 323 325
126 112 274 248 181 156 129 146 181 199 172 77 139 175 155 147 171 157 161 165 143 157 177 318 289 267 229 217 194 185 177 160 159 158 156 162 151 144 152 155 148 148 153 155 155 157 161 166 171 174 177 176 174 180 188 194 215 235 251 262 267 272 276 277 276 272 267 263 259 256 255 257 263 269 273 274 285 309 329 338 339 334 328 328 332 335
84 117 222 289 211 153 167 205 186 169 156 127 151 181 184 100 120 151 148 104 123 145 161 141 216 259 248 214 194 189 179 167 164 161 155 153 148 146 151 153 148 146 149 151 154 155 153 155 160 163 167 171 173 184 201 222 248 266 275 276 277 277 274 269 262 256 251 245 241 244 247 252 257 261 269 279 304 327 339 340 340 345 339 335 343 348
91 141 179 268 187 174 206 218 161 158 164 162 168 181 176 138 118 142 216 287 105 123 165 154 180 258 260 257 217 187 169 170 163 152 143 142 144 145 148 151 151 149 148 150 151 150 149 150 154 156 157 162 171 190 213 240 260 267 269 270 268 264 255 248 245 245 242 232 228 238 247 251 251 256 276 297 314 328 342 346 352 358 349 351 5 10
147 128 125 206 218 207 230 266 148 166 167 159 173 176 155 144 138 153 196 216 113 92 157 128 118 265 267 286 255 153 140 157 159 150 142 139 141 142 144 149 150 148 149 150 149 146 147 151 152 149 146 151 165 183 201 228 245 252 256 255 247 241 242 245 241 233 231 227 227 236 242 245 248 263 286 296 313 349 10 10 11 11 11 20 28 27
157 119 111 238 279 298 313 356 79 156 156 155 189 173 157 172 154 154 178 167 139 153 150 88 29 268 283 307 97 115 123 140 150 151 145 143 144 143 145 149 147 146 147 148 147 145 146 149 148 144 143 145 158 175 193 218 231 237 240 232 224 234 247 252 243 230 229 227 229 235 236 231 223 218 193 157 81 42 30 27 31 33 35 40 41 38
178 165 96 106 33 2 3 32 66 143 170 177 188 177 176 156 108 113 138 109 144 192 156 128 216 258 284 347 100 114 123 132 142 147 146 142 143 144 146 147 147 147 149 149 149 147 147 148 148 146 145 148 162 178 188 198 213 223 217 208 219 238 248 250 247 238 230 227 225 221 204 180 167 156 138 109 62 48 50 55 58 57 54 50 47 45
170 190 116 121 146 156 176 189 186 177 185 193 159 170 178 153 136 146 131 114 181 204 146 148 200 242 247 131 126 129 133 137 143 147 147 143 143 145 146 146 147 150 152 152 150 151 152 150 146 145 146 156 170 179 182 188 205 210 201 202 219 237 246 245 237 222 213 212 199 173 157 151 149 141 120 100 81 76 75 74 73 68 60 53 48 45
120 173 154 143 163 176 189 217 234 167 153 173 170 170 177 168 154 136 118 157 183 155 167 215 181 156 169 163 151 147 144 144 149 150 149 148 149 149 148 149 150 150 152 154 154 156 153 146 145 150 152 162 172 175 181 192 201 200 199 207 221 233 239 232 213 197 191 180 158 147 146 142 137 124 106 97 92 88 85 81 75 67 59 52 46 43
82 191 183 135 161 204 204 227 256 208 172 177 169 169 174 168 147 129 145 188 158 128 207 248 175 158 183 183 170 161 156 154 157 157 155 152 152 152 151 150 151 151 155 158 157 155 150 147 154 158 159 168 173 175 185 192 193 195 201 215 225 228 224 207 187 173 165 153 142 138 136 129 121 110 102 97 93 90 87 81 72 65 58 50 45 46
107 187 201 114 108 297 342 301 281 139 147 135 149 168 168 165 168 164 175 183 153 148 210 210 178 180 191 183 178 171 161 157 157 157 155 151 151 151 150 150 151 154 158 158 155 153 152 157 163 165 168 173 172 175 185 187 187 194 205 216 219 209 193 181 163 151 145 138 131 126 122 116 110 105 101 97 94 92 86 79 72 64 57 51 48 46
115 182 192 128 92 8 9 352 14 111 117 61 63 176 167 166 175 165 159 166 147 152 197 170 169 196 209 175 171 152 141 142 144 147 149 151 151 152 152 153 154 156 159 158 156 156 161 166 169 170 171 171 171 176 182 184 188 196 204 206 194 183 177 164 150 144 139 130 123 118 114 112 107 104 101 97 95 91 84 77 70 63 58 54 50 46
119 187 184 113 75 359 5 11 19 56 113 99 60 3 121 136 133 117 130 140 110 81 101 136 149 228 258 153 138 132 136 139 142 148 152 155 156 155 155 157 158 160 161 161 159 161 168 171 171 171 171 171 173 176 181 186 190 193 196 191 187 186 172 154 146 142 135 128 123 119 116 113 108 104 101 98 94 89 81 74 67 61 58 55 52 49
120 129 72 98 98 311 355 23 2 9 65 88 64 24 107 129 127 132 146 156 143 128 114 115 146 224 208 147 135 138 143 145 150 155 155 158 161 159 158 160 162 163 164 163 162 166 171 171 170 172 173 172 174 176 183 191 192 194 197 194 195 180 153 150 147 140 134 130 127 125 120 114 109 106 103 98 92 84 76 69 63 60 57 57 56 53
137 131 120 115 132 245 332 13 342 11 61 76 13 37 161 143 119 127 113 199 174 144 133 149 200 190 158 147 146 149 154 159 164 165 163 163 164 163 163 163 165 167 167 164 165 170 172 171 171 173 173 172 172 176 186 195 198 205 202 200 200 155 145 152 149 139 134 132 132 129 122 116 113 109 103 95 87 80 76 70 65 62 59 59 61 58
137 129 132 135 136 207 300 333 351 41 104 223 251 198 198 208 133 137 164 212 192 149 145 227 199 151 148 158 164 165 168 170 170 169 167 164 164 165 167 168 169 170 168 166 169 171 170 169 169 171 171 170 175 183 187 191 206 214 202 202 195 148 150 156 147 139 136 135 135 130 122 117 113 106 99 93 87 83 79 74 70 68 68 68 68 65
135 127 125 83 108 130 337 1 16 228 226 248 279 254 215 202 168 142 100 202 191 139 69 164 159 156 153 156 160 160 161 162 163 165 167 168 169 171 172 172 173 171 169 168 169 170 169 169 167 168 169 171 180 188 185 185 207 212 200 205 188 151 155 153 141 140 140 137 134 128 120 116 111 104 99 94 90 86 82 79 79 79 78 77 72 67
139 134 121 80 84 117 79 63 195 241 261 288 313 278 186 169 165 116 73 223 207 184 152 138 150 158 135 130 140 146 146 147 152 163 172 175 178 180 179 179 177 175 172 172 172 173 172 171 169 170 173 177 185 189 185 187 206 206 203 208 177 153 154 149 139 142 142 137 131 124 120 117 112 107 102 98 94 90 88 88 88 86 81 75 71 66
141 136 116 75 48 119 118 146 247 303 313 301 290 238 175 170 179 145 125 245 223 183 155 140 143 151 130 126 132 136 136 134 136 167 179 180 183 184 184 183 180 176 174 175 177 176 173 172 174 174 175 182 187 187 185 188 203 210 212 198 165 154 152 145 137 136 134 131 125 122 122 121 117 111 105 102 100 96 96 93 90 86 81 76 73 71
129 145 147 137 89 96 103 112 288 322 278 248 241 235 216 203 188 148 111 289 251 185 164 153 150 152 137 131 133 132 132 132 143 189 187 185 186 184 180 178 177 176 175 176 176 173 172 175 177 173 174 183 183 179 179 191 206 216 204 174 158 151 143 134 128 125 126 125 122 121 122 121 118 113 110 109 105 100 98 95 91 89 86 81 79 78
68 89 126 123 114 118 123 146 184 205 241 242 233 238 232 178 165 113 71 310 251 182 167 159 155 159 154 147 144 139 140 159 196 193 187 186 185 182 176 172 172 173 175 176 176 174 174 176 174 170 176 182 175 167 174 192 207 207 181 158 148 140 131 128 125 123 124 122 120 120 121 120 119 116 113 111 105 100 98 96 93 92 89 86 84 83
62 46 77 114 140 157 145 159 211 222 236 243 233 218 178 144 99 80 96 271 241 180 172 169 164 166 164 156 153 155 168 190 192 183 180 178 176 176 174 171 171 172 172 173 176 175 173 170 167 168 176 177 169 165 173 185 195 184 163 148 139 133 130 129 127 125 124 121 121 121 120 120 120 117 114 110 106 103 100 96 95 94 92 89 88 87
50 37 71 127 143 148 142 145 247 248 235 234 213 174 154 130 75 100 184 254 234 175 177 177 170 168 167 165 167 173 182 192 173 165 166 167 166 169 172 171 171 173 172 172 173 169 164 162 164 168 173 174 172 172 176 180 175 163 151 143 139 136 133 131 129 128 127 125 125 124 123 123 122 118 113 109 106 105 102 98 97 95 92 91 89 87
99 65 73 120 127 136 147 129 81 269 237 173 153 153 149 137 119 200 225 286 204 175 178 180 176 172 170 172 176 170 153 149 153 154 158 163 165 164 165 166 165 166 166 166 165 162 160 162 167 171 175 175 174 175 176 173 162 152 146 145 144 139 136 134 133 132 132 131 130 129 127 125 122 118 113 110 109 107 103 102 100 96 93 92 89 86
165 144 136 161 143 112 54 83 113 257 203 148 133 135 169 176 209 238 279 321 190 178 175 175 178 176 173 174 172 154 143 145 150 153 157 162 163 162 163 165 164 163 163 162 161 162 165 167 168 171 173 170 168 170 171 167 158 150 148 149 146 141 139 139 138 138 138 136 136 133 131 128 123 119 116 114 112 107 103 104 103 98 95 92 88 86
190 144 163 211 184 127 107 167 191 248 211 163 145 137 206 190 177 349 230 156 171 176 174 172 174 177 177 174 162 150 148 149 152 155 157 158 160 160 160 162 162 160 161 162 162 165 170 168 164 164 164 159 157 162 167 167 161 153 152 152 149 146 145 143 142 143 141 140 139 136 133 130 126 123 121 117 114 109 106 106 105 101 99 95 90 87
286 193 170 185 189 161 176 212 232 283 267 195 189 357 17 183 182 18 184 176 172 175 176 172 170 174 178 175 161 151 152 153 154 156 157 157 159 159 159 159 158 158 160 164 166 170 172 168 165 164 159 153 154 159 164 169 166 157 155 156 152 149 148 146 144 145 142 141 140 138 136 133 130 128 125 120 117 112 109 109 108 106 103 99 93 88
276 201 148 120 191 214 214 241 259 309 336 204 212 307 15 190 194 194 204 191 179 179 181 178 174 174 176 173 163 156 156 156 155 156 158 158 158 159 159 158 158 160 164 167 169 170 169 165 164 161 153 149 154 161 166 172 174 166 159 155 150 149 149 147 146 145 143 142 141 140 140 138 135 133 129 124 123 119 115 114 113 109 105 101 95 89
284 127 88 77 140 191 236 315 322 333 3 146 181 199 194 188 194 198 204 199 187 183 184 182 179 177 175 173 169 163 160 161 159 157 158 159 159 160 161 160 160 163 165 167 169 169 167 164 161 155 149 147 156 165 168 169 170 164 156 150 148 149 149 148 147 146 142 142 142 142 143 142 139 137 133 130 129 125 120 118 115 110 104 98 92 89
293 46 35 65 113 160 252 285 302 28 29 150 167 185 193 195 206 206 199 197 191 185 184 184 183 179 175 175 176 170 164 165 165 162 160 161 162 163 164 163 163 163 165 167 169 169 169 166 161 155 151 151 158 165 167 165 164 160 153 148 148 150 149 148 148 144 141 142 142 142 144 145 143 141 138 135 133 128 123 120 116 111 104 96 90 88
344 360 180 117 70 47 275 276 275 54 316 249 193 192 192 191 210 207 196 194 190 183 180 181 183 183 180 179 179 175 168 167 169 167 165 164 165 166 166 165 164 165 168 169 169 170 170 167 161 156 153 154 159 164 165 163 160 155 150 147 149 150 150 149 147 144 142 142 142 142 145 146 145 144 142 139 135 130 124 120 114 109 105 100 95 91
21 171 164 110 88 271 251 219 186 167 242 221 191 179 170 166 182 190 187 187 186 183 180 177 176 179 181 181 181 178 172 169 170 169 168 168 168 168 168 166 165 167 169 169 169 171 170 166 162 160 158 157 159 163 164 161 156 151 149 149 151 153 153 151 148 145 143 142 141 143 145 145 145 145 143 141 138 134 128 123 116 111 109 105 101 95
207 197 182 143 159 250 245 198 183 169 118 174 167 159 156 156 165 173 176 182 186 184 183 180 176 173 173 174 175 175 171 168 168 169 169 168 170 170 169 167 167 168 170 171 170 169 167 165 164 165 162 159 159 163 164 160 154 151 151 151 153 157 159 155 150 146 143 142 142 142 143 144 145 145 144 142 141 138 134 129 123 117 112 106 102 97
Height
1464 1467 1470 1470 1472 1473 1473 1474 1475 1478 1479 1480 1483 1483 1484 1485 1481 1479 1477 1474 1472 1472 1476 1478 1478 1481 1483 1483 1485 1487 1490 1492 1493 1495 1498 1499 1497 1496 1499 1500 1502 1504 1505 1507 1509 1511 1512 1514 1515 1516 1518 1520 1521 1523 1525 1526 1528 1529 1531 1532 1534 1535 1536 1537 1538 1539 1540 1540 1541 1542 1542 1543 1543 1544 1544 1544 1544 1544 1544 1544 1544 1544 1544 1545 1544 1544
1463 1467 1469 1468 1469 1471 1472 1474 1475 1478 1480 1481 1482 1483 1485 1487 1481 1479 1478 1476 1473 1473 1477 1481 1482 1484 1483 1482 1485 1488 1490 1491 1490 1491 1494 1498 1499 1496 1497 1499 1502 1504 1505 1507 1509 1511 1513 1514 1515 1517 1518 1520 1521 1523 1524 1526 1528 1529 1531 1532 1533 1535 1536 1537 1538 1538 1539 1540 1540 1541 1542 1542 1543 1543 1543 1543 1543 1543 1543 1543 1543 1543 1543 1543 1543 1542
1466 1468 1467 1467 1469 1470 1473 1474 1475 1478 1480 1481 1484 1485 1486 1487 1483 1480 1479 1477 1475 1474 1477 1481 1481 1484 1484 1483 1485 1487 1487 1488 1489 1489 1490 1495 1500 1498 1495 1497 1500 1502 1505 1507 1510 1512 1513 1515 1516 1517 1518 1520 1521 1523 1525 1526 1528 1529 1530 1532 1533 1535 1536 1537 1537 1538 1538 1539 1540 1540 1541 1541 1542 1542 1542 1542 1542 1542 1542 1542 1542 1542 1542 1542 1541 1541
1468 1466 1464 1467 1468 1469 1473 1476 1476 1478 1480 1482 1484 1486 1487 1487 1484 1481 1480 1479 1477 1476 1479 1480 1480 1484 1487 1486 1488 1488 1489 1490 1493 1494 1494 1496 1500 1500 1497 1497 1499 1502 1504 1507 1510 1512 1514 1516 1517 1518 1519 1520 1522 1523 1525 1527 1528 1529 1530 1532 1533 1534 1536 1536 1536 1537 1538 1539 1539 1539 1540 1540 1541 1541 1541 1541 1541 1541 1541 1541 1541 1541 1541 1541 1540 1540
1463 1461 1461 1465 1467 1468 1471 1476 1478 1479 1482 1484 1483 1484 1485 1484 1484 1483 1482 1480 1477 1479 1479 1479 1484 1488 1489 1490 1491 1492 1493 1494 1495 1497 1498 1498 1500 1503 1502 1500 1499 1502 1505 1507 1510 1513 1515 1516 1518 1519 1520 1521 1522 1524 1525 1527 1528 1529 1530 1531 1533 1534 1535 1536 1536 1537 1537 1538 1538 1539 1539 1540 1540 1540 1541 1541 1541 1541 1541 1541 1541 1541 1541 1540 1540 1539
1461 1458 1460 1463 1466 1467 1469 1474 1477 1478 1482 1485 1482 1481 1481 1482 1482 1483 1483 1481 1482 1484 1480 1481 1490 1493 1491 1491 1492 1493 1494 1495 1496 1496 1497 1498 1499 1503 1508 1507 1503 1503 1506 1508 1511 1513 1515 1517 1518 1519 1521 1522 1523 1524 1526 1527 1528 1529 1530 1531 1533 1533 1534 1535 1536 1536 1536 1537 1538 1539 1539 1540 1540 1541 1541 1541 1541 1541 1541 1541 1541 1540 1540 1539 1539 1538
1458 1458 1459 1462 1465 1467 1469 1473 1475 1476 1481 1484 1479 1478 1480 1481 1482 1483 1483 1485 1488 1487 1483 1483 1489 1494 1494 1492 1491 1493 1495 1497 1497 1494 1493 1496 1498 1500 1506 1510 1506 1503 1506 1509 1511 1514 1516 1518 1519 1520 1522 1523 1524 1525 1526 1527 1528 1529 1530 1531 1532 1533 1534 1534 1535 1536 1536 1537 1538 1539 1540 1540 1540 1541 1540 1540 1540 1539 1539 1540 1540 1540 1539 1538 1537 1537
1455 1458 1460 1462 1464 1467 1470 1471 1473 1474 1479 1481 1476 1476 1480 1480 1481 1482 1483 1487 1488 1486 1485 1483 1485 1491 1493 1491 1490 1492 1497 1499 1498 1494 1491 1494 1497 1497 1501 1509 1509 1505 1506 1509 1511 1514 1516 1518 1519 1520 1522 1523 1524 1525 1526 1527 1528 1529 1530 1531 1532 1533 1534 1535 1535 1535 1536 1537 1538 1539 1539 1540 1539 1539 1539 1539 1539 1539 1538 1539 1539 1539 1538 1537 1536 1535
1453 1456 1459 1461 1464 1467 1467 1467 1469 1472 1474 1475 1474 1475 1476 1477 1479 1480 1481 1487 1488 1489 1490 1485 1485 1491 1492 1491 1492 1492 1497 1500 1497 1494 1492 1493 1496 1495 1498 1507 1510 1507 1506 1509 1512 1514 1516 1518 1519 1520 1521 1522 1524 1524 1525 1526 1528 1529 1530 1531 1532 1533 1534 1535 1535 1535 1536 1536 1537 1538 1538 1538 1538 1538 1538 1538 1538 1538 1538 1538 1538 1537 1537 1536 1535 1534
1451 1452 1454 1457 1462 1463 1462 1464 1466 1469 1470 1471 1473 1474 1474 1478 1479 1480 1483 1485 1489 1493 1492 1486 1485 1489 1492 1493 1495 1494 1495 1496 1493 1491 1490 1491 1494 1494 1496 1503 1507 1507 1507 1510 1512 1513 1516 1517 1518 1520 1521 1522 1523 1524 1525 1526 1527 1528 1529 1531 1532 1534 1535 1535 1535 1535 1535 1536 1537 1537 1537 1537 1537 1537 1538 1538 1538 1537 1537 1536 1536 1536 1535 1535 1534 1533
1448 1449 1451 1453 1457 1458 1460 1463 1464 1466 1467 1468 1471 1472 1474 1478 1479 1482 1485 1485 1491 1495 1488 1484 1482 1485 1490 1491 1492 1489 1485 1485 1487 1489 1490 1490 1493 1494 1497 1500 1503 1505 1507 1509 1511 1513 1516 1517 1518 1519 1520 1521 1523 1524 1525 1526 1527 1528 1529 1531 1532 1534 1534 1534 1535 1534 1535 1536 1536 1536 1536 1536 1537 1537 1537 1537 1537 1536 1536 1535 1535 1535 1534 1534 1533 1532
1448 1450 1452 1451 1452 1455 1458 1462 1464 1464 1465 1467 1470 1471 1477 1482 1480 1484 1487 1487 1495 1494 1485 1485 1485 1485 1489 1486 1483 1481 1476 1477 1481 1484 1485 1486 1488 1492 1495 1498 1501 1503 1506 1508 1510 1513 1515 1516 1517 1519 1519 1520 1522 1523 1525 1526 1527 1528 1529 1531 1532 1533 1533 1534 1534 1534 1535 1536 1536 1536 1536 1536 1536 1536 1536 1536 1535 1535 1534 1534 1534 1533 1533 1532 1532 1531
1450 1451 1452 1450 1450 1452 1455 1462 1467 1467 1466 1467 1470 1474 1483 1490 1490 1491 1492 1494 1498 1490 1485 1490 1488 1487 1486 1478 1477 1478 1473 1474 1475 1476 1479 1482 1485 1489 1492 1496 1500 1503 1505 1507 1510 1512 1514 1515 1516 1518 1519 1520 1521 1523 1525 1527 1528 1528 1529 1530 1531 1532 1532 1534 1534 1534 1535 1536 1536 1536 1536 1536 1536 1535 1535 1535 1534 1534 1533 1533 1532 1532 1531 1531 1531 1531
1456 1453 1450 1450 1450 1448 1451 1459 1465 1467 1468 1468 1470 1474 1483 1492 1497 1499 1500 1502 1498 1487 1486 1489 1484 1485 1484 1476 1477 1478 1473 1473 1474 1476 1480 1483 1487 1489 1491 1496 1499 1502 1504 1507 1509 1511 1513 1514 1516 1518 1519 1521 1522 1523 1526 1527 1528 1529 1529 1530 1530 1531 1533 1534 1534 1534 1535 1535 1535 1536 1536 1536 1535 1535 1535 1534 1534 1533 1533 1532 1532 1531 1531 1531 1530 1530
1458 1457 1451 1449 1449 1447 1448 1453 1457 1462 1468 1469 1468 1472 1478 1482 1487 1493 1493 1493 1489 1484 1488 1488 1483 1486 1485 1477 1477 1476 1474 1474 1475 1478 1481 1484 1488 1490 1492 1496 1499 1501 1503 1507 1509 1511 1513 1515 1516 1518 1520 1521 1522 1524 1526 1527 1528 1529 1530 1530 1531 1532 1533 1533 1534 1534 1535 1535 1535 1535 1535 1535 1535 1534 1534 1533 1533 1533 1532 1532 1532 1531 1531 1531 1530 1530
1454 1455 1447 1444 1446 1444 1447 1450 1452 1459 1468 1470 1468 1471 1476 1473 1474 1485 1489 1487 1483 1481 1486 1491 1489 1487 1483 1477 1476 1475 1475 1475 1475 1478 1482 1485 1487 1490 1492 1495 1498 1501 1503 1507 1509 1511 1513 1515 1517 1518 1519 1521 1522 1524 1526 1527 1528 1530 1530 1531 1532 1532 1533 1533 1533 1534 1534 1535 1535 1535 1534 1534 1534 1533 1533 1533 1533 1532 1532 1532 1531 1531 1531 1530 1530 1529
1453 1453 1444 1442 1445 1444 1445 1448 1449 1454 1463 1470 1471 1470 1471 1468 1469 1481 1490 1492 1488 1482 1487 1496 1494 1487 1482 1478 1476 1476 1476 1476 1476 1477 1481 1485 1486 1488 1491 1493 1497 1501 1502 1506 1509 1511 1514 1515 1517 1519 1520 1522 1523 1524 1526 1527 1529 1530 1531 1532 1532 1532 1532 1533 1533 1534 1534 1534 1534 1534 1533 1533 1533 1533 1533 1532 1532 1532 1532 1531 1531 1531 1530 1530 1529 1529
1448 1449 1443 1442 1445 1444 1443 1446 1448 1450 1455 1465 1470 1467 1467 1470 1473 1477 1483 1490 1489 1485 1492 1500 1494 1488 1486 1481 1477 1477 1477 1477 1477 1477 1480 1485 1486 1488 1492 1494 1498 1500 1501 1505 1508 1511 1514 1516 1518 1520 1521 1523 1524 1525 1527 1528 1529 1530 1531 1532 1532 1532 1532 1533 1533 1533 1533 1533 1533 1533 1532 1533 1533 1532 1532 1532 1532 1533 1532 1531 1531 1531 1530 1529 1529 1528
1442 1445 1444 1440 1442 1444 1443 1447 1452 1452 1451 1456 1460 1459 1463 1471 1477 1479 1482 1485 1486 1491 1500 1498 1492 1489 1486 1481 1477 1476 1475 1476 1477 1478 1479 1483 1485 1487 1492 1496 1498 1499 1501 1505 1507 1509 1511 1514 1518 1519 1520 1523 1525 1527 1528 1528 1529 1530 1531 1532 1532 1532 1532 1533 1533 1532 1532 1532 1532 1532 1532 1532 1532 1532 1532 1532 1532 1532 1532 1531 1531 1530 1529 1529 1528 1527
1438 1443 1445 1440 1438 1441 1444 1448 1453 1454 1452 1453 1455 1456 1458 1462 1467 1472 1477 1476 1478 1492 1501 1498 1497 1492 1480 1474 1473 1472 1472 1472 1473 1475 1477 1480 1484 1486 1490 1495 1496 1498 1501 1505 1507 1509 1511 1514 1518 1519 1520 1523 1525 1527 1528 1528 1529 1530 1531 1532 1532 1533 1532 1532 1533 1532 1532 1532 1532 1532 1532 1532 1532 1532 1532 1532 1532 1532 1531 1531 1530 1530 1529 1528 1528 1527
1437 1441 1445 1443 1440 1442 1444 1443 1445 1450 1452 1453 1456 1459 1459 1459 1461 1465 1472 1474 1474 1485 1495 1498 1500 1490 1473 1467 1468 1468 1471 1471 1470 1473 1475 1478 1482 1486 1490 1494 1496 1498 1502 1504 1507 1510 1511 1515 1519 1520 1522 1524 1526 1527 1528 1529 1530 1531 1532 1533 1532 1533 1532 1532 1532 1532 1532 1532 1532 1532 1532 1532 1533 1532 1532 1532 1532 1532 1531 1531 1530 1529 1529 1528 1528 1528
1436 1441 1444 1444 1443 1442 1438 1434 1437 1443 1446 1449 1452 1457 1457 1457 1460 1466 1474 1477 1475 1480 1487 1489 1485 1475 1468 1467 1466 1466 1469 1471 1473 1475 1477 1480 1482 1485 1489 1493 1495 1497 1501 1505 1508 1509 1510 1514 1519 1520 1521 1524 1526 1527 1528 1529 1530 1531 1532 1533 1533 1533 1533 1532 1532 1532 1532 1532 1532 1532 1532 1532 1533 1532 1533 1533 1532 1532 1531 1531 1530 1529 1529 1528 1528 1527
1433 1437 1441 1442 1440 1438 1435 1434 1436 1437 1440 1445 1447 1451 1455 1454 1454 1460 1468 1472 1475 1481 1486 1483 1473 1467 1469 1469 1465 1465 1469 1472 1475 1477 1478 1482 1483 1485 1489 1494 1496 1497 1500 1505 1508 1509 1510 1515 1519 1520 1521 1523 1525 1526 1528 1530 1531 1532 1533 1533 1533 1533 1533 1533 1533 1532 1532 1532 1532 1532 1532 1532 1533 1533 1533 1533 1533 1532 1531 1530 1530 1530 1529 1529 1528 1528
1431 1435 1440 1441 1437 1435 1434 1434 1435 1435 1439 1444 1446 1448 1451 1450 1449 1452 1457 1462 1468 1477 1478 1475 1472 1469 1469 1469 1465 1466 1470 1473 1476 1478 1479 1482 1484 1486 1490 1494 1497 1497 1500 1505 1507 1509 1512 1515 1518 1520 1521 1523 1524 1526 1529 1529 1531 1532 1533 1534 1534 1534 1534 1533 1533 1532 1532 1532 1532 1532 1532 1532 1533 1533 1533 1533 1532 1532 1531 1531 1530 1530 1530 1529 1529 1528
1433 1437 1440 1443 1444 1443 1442 1441 1441 1441 1441 1441 1444 1445 1445 1447 1449 1453 1457 1459 1463 1470 1469 1465 1470 1472 1470 1470 1468 1468 1472 1475 1477 1479 1480 1482 1484 1487 1490 1493 1495 1496 1500 1504 1507 1510 1513 1515 1518 1519 1520 1522 1524 1527 1528 1529 1531 1532 1533 1534 1534 1534 1534 1533 1533 1532 1532 1532 1531 1532 1532 1532 1533 1533 1533 1533 1532 1532 1531 1531 1531 1531 1531 1531 1530 1529
1432 1436 1438 1442 1448 1450 1449 1445 1443 1443 1441 1439 1441 1443 1443 1446 1447 1449 1456 1458 1460 1471 1469 1460 1465 1474 1473 1471 1470 1470 1473 1475 1477 1480 1482 1483 1486 1488 1490 1492 1494 1496 1500 1505 1507 1511 1513 1515 1517 1518 1520 1523 1525 1527 1528 1530 1531 1533 1533 1534 1534 1534 1534 1533 1532 1532 1531 1531 1531 1532 1532 1533 1533 1533 1533 1533 1532 1532 1532 1532 1532 1532 1532 1531 1531 1530
1430 1434 1434 1436 1439 1442 1442 1439 1438 1438 1438 1438 1440 1442 1442 1444 1443 1445 1452 1454 1457 1468 1468 1459 1464 1474 1474 1471 1471 1471 1473 1475 1477 1479 1481 1483 1486 1489 1491 1493 1496 1498 1502 1506 1509 1512 1513 1514 1516 1518 1520 1524 1526 1527 1529 1530 1531 1532 1533 1533 1534 1534 1533 1532 1532 1532 1532 1532 1532 1532 1533 1533 1533 1533 1533 1533 1532 1533 1533 1533 1533 1533 1532 1532 1531 1530
1429 1433 1434 1434 1436 1440 1441 1441 1441 1438 1434 1433 1436 1440 1442 1444 1444 1444 1447 1450 1455 1462 1463 1463 1467 1468 1467 1468 1468 1468 1470 1473 1476 1478 1479 1482 1485 1489 1492 1494 1497 1500 1503 1506 1508 1510 1511 1513 1516 1519 1521 1523 1525 1527 1529 1530 1531 1532 1533 1533 1533 1533 1533 1532 1532 1532 1532 1532 1532 1533 1533 1533 1533 1533 1533 1533 1533 1533 1534 1534 1534 1533 1533 1532 1531 1531
1425 1431 1434 1435 1437 1440 1441 1441 1440 1437 1437 1436 1436 1437 1439 1442 1442 1439 1442 1448 1450 1448 1449 1458 1465 1461 1461 1465 1465 1465 1467 1468 1472 1477 1480 1483 1486 1489 1492 1494 1496 1500 1503 1505 1506 1509 1512 1514 1517 1519 1520 1522 1524 1526 1528 1530 1531 1532 1532 1532 1533 1533 1533 1532 1532 1532 1532 1533 1533 1533 1533 1533 1533 1533 1533 1534 1534 1534 1535 1534 1534 1534 1533 1533 1532 1531
1423 1429 1433 1432 1434 1437 1439 1441 1439 1437 1439 1441 1444 1444 1440 1440 1441 1439 1444 1452 1450 1445 1446 1454 1463 1462 1460 1462 1464 1466 1469 1471 1475 1479 1481 1484 1487 1489 1492 1494 1496 1499 1502 1504 1507 1510 1512 1514 1516 1518 1519 1522 1524 1526 1528 1530 1530 1531 1532 1532 1533 1533 1533 1533 1532 1533 1533 1533 1533 1533 1533 1534 1534 1534 1534 1534 1535 1535 1535 1535 1535 1534 1534 1533 1532 1532
1422 1430 1432 1428 1432 1438 1439 1441 1442 1440 1439 1441 1448 1452 1445 1442 1445 1444 1449 1454 1451 1451 1457 1461 1465 1467 1462 1461 1465 1468 1470 1473 1476 1479 1482 1485 1487 1488 1491 1494 1496 1499 1502 1504 1507 1509 1511 1513 1516 1517 1519 1522 1525 1527 1529 1530 1531 1531 1531 1532 1533 1533 1533 1532 1533 1533 1533 1533 1533 1534 1534 1534 1534 1534 1535 1535 1536 1536 1536 1536 1535 1535 1534 1534 1533 1533
1421 1430 1432 1429 1436 1442 1441 1443 1444 1441 1440 1440 1446 1451 1447 1443 1446 1447 1450 1452 1448 1451 1463 1464 1461 1462 1460 1460 1464 1467 1470 1473 1476 1479 1481 1484 1486 1488 1489 1492 1495 1498 1500 1502 1505 1508 1510 1513 1515 1517 1520 1523 1525 1528 1529 1530 1531 1531 1531 1532 1532 1532 1532 1533 1533 1533 1533 1533 1534 1534 1535 1535 1535 1535 1536 1536 1536 1536 1536 1536 1536 1536 1535 1535 1534 1534
1421 1427 1431 1432 1439 1444 1445 1447 1445 1440 1440 1443 1446 1452 1453 1451 1450 1449 1451 1454 1449 1450 1456 1452 1446 1450 1456 1459 1462 1466 1469 1471 1473 1475 1478 1481 1485 1487 1488 1490 1494 1496 1498 1501 1504 1506 1509 1512 1514 1517 1520 1523 1525 1527 1529 1530 1531 1531 1531 1532 1532 1532 1532 1533 1534 1533 1533 1534 1534 1535 1535 1535 1536 1536 1536 1537 1537 1537 1537 1537 1537 1537 1536 1536 1535 1535
1422 1425 1430 1433 1436 1444 1448 1447 1445 1445 1445 1448 1451 1454 1455 1454 1452 1448 1448 1451 1451 1450 1451 1448 1445 1448 1453 1455 1458 1461 1463 1465 1468 1471 1475 1478 1483 1487 1489 1490 1492 1495 1498 1500 1503 1505 1509 1511 1514 1517 1520 1523 1525 1526 1527 1530 1531 1532 1532 1532 1532 1532 1533 1533 1533 1533 1533 1534 1535 1535 1536 1536 1537 1537 1537 1537 1538 1538 1538 1538 1538 1538 1537 1537 1537 1536
1423 1425 1431 1435 1437 1445 1451 1448 1448 1451 1449 1451 1454 1454 1453 1454 1452 1450 1451 1452 1452 1451 1452 1453 1452 1450 1450 1452 1456 1459 1462 1466 1470 1474 1477 1479 1482 1485 1488 1490 1492 1495 1497 1500 1502 1506 1509 1511 1513 1517 1520 1523 1525 1526 1527 1528 1530 1532 1533 1532 1532 1532 1533 1533 1533 1533 1534 1534 1535 1536 1537 1537 1538 1538 1538 1538 1539 1539 1539 1539 1539 1539 1539 1538 1538 1537
1422 1424 1430 1440 1444 1448 1454 1456 1455 1453 1452 1453 1454 1452 1451 1452 1451 1448 1448 1449 1450 1451 1451 1452 1454 1452 1452 1455 1459 1462 1465 1468 1472 1475 1478 1480 1481 1482 1485 1488 1490 1493 1496 1499 1502 1504 1508 1511 1513 1516 1520 1522 1524 1526 1527 1528 1529 1532 1533 1533 1532 1532 1532 1533 1533 1533 1534 1535 1536 1537 1538 1538 1539 1539 1539 1539 1540 1540 1540 1540 1540 1540 1540 1540 1539 1538
1418 1422 1426 1439 1449 1450 1454 1459 1455 1452 1452 1451 1448 1448 1447 1447 1446 1443 1441 1443 1448 1450 1449 1451 1454 1454 1453 1455 1459 1463 1466 1470 1476 1478 1478 1479 1481 1482 1483 1485 1488 1492 1496 1499 1502 1504 1507 1510 1513 1516 1519 1521 1524 1526 1527 1528 1529 1532 1533 1533 1532 1532 1532 1532 1533 1533 1534 1535 1536 1537 1539 1540 1540 1540 1540 1540 1540 1541 1541 1541 1541 1541 1541 1541 1540 1540
1415 1417 1418 1432 1450 1454 1453 1456 1457 1456 1452 1443 1440 1443 1443 1442 1444 1443 1440 1442 1445 1446 1447 1448 1452 1454 1453 1455 1460 1463 1467 1473 1476 1476 1475 1477 1479 1481 1483 1486 1489 1493 1496 1499 1502 1505 1508 1510 1513 1517 1519 1521 1523 1525 1527 1528 1529 1531 1533 1533 1532 1532 1532 1532 1533 1534 1535 1536 1537 1538 1540 1541 1541 1541 1541 1541 1542 1542 1542 1542 1542 1542 1543 1543 1542 1541
1418 1419 1419 1428 1447 1454 1449 1450 1455 1454 1445 1437 1437 1442 1443 1443 1443 1443 1445 1443 1440 1442 1445 1446 1450 1454 1453 1452 1455 1459 1465 1471 1471 1469 1470 1474 1477 1480 1483 1487 1491 1495 1497 1500 1502 1504 1508 1511 1514 1517 1520 1521 1523 1525 1526 1527 1529 1531 1533 1533 1532 1532 1532 1533 1534 1535 1536 1537 1538 1539 1541 1541 1542 1542 1542 1542 1543 1543 1543 1543 1543 1544 1544 1544 1543 1542
1421 1422 1424 1431 1443 1448 1446 1447 1451 1446 1439 1439 1441 1442 1444 1444 1442 1447 1452 1444 1434 1435 1440 1441 1444 1449 1451 1452 1453 1454 1456 1458 1457 1460 1466 1471 1475 1480 1484 1486 1490 1494 1497 1500 1503 1504 1508 1512 1515 1518 1521 1522 1524 1525 1525 1526 1528 1531 1532 1532 1532 1532 1532 1533 1535 1536 1537 1538 1539 1540 1542 1542 1543 1543 1543 1544 1544 1544 1545 1545 1545 1545 1546 1545 1545 1544
1426 1429 1433 1435 1440 1445 1444 1444 1447 1443 1438 1441 1443 1441 1443 1445 1447 1451 1449 1438 1432 1434 1437 1438 1441 1444 1447 1449 1449 1449 1450 1450 1450 1456 1464 1470 1475 1480 1484 1487 1490 1492 1496 1500 1503 1506 1509 1512 1515 1518 1521 1524 1525 1526 1525 1526 1528 1530 1532 1532 1532 1533 1533 1534 1535 1537 1538 1539 1540 1541 1542 1543 1544 1544 1545 1545 1546 1546 1546 1546 1546 1547 1547 1547 1546 1546
1429 1433 1438 1438 1440 1446 1444 1442 1445 1443 1437 1438 1442 1443 1444 1445 1447 1445 1438 1433 1434 1436 1437 1440 1443 1444 1446 1448 1448 1449 1451 1452 1454 1459 1465 1469 1474 1478 1483 1486 1490 1493 1496 1499 1503 1506 1509 1512 1516 1519 1523 1525 1525 1526 1526 1526 1528 1529 1531 1532 1533 1533 1534 1535 1537 1538 1539 1540 1542 1543 1543 1544 1545 1545 1546 1546 1547 1547 1547 1547 1548 1548 1548 1548 1547 1547
1426 1429 1434 1438 1443 1447 1446 1444 1444 1439 1434 1436 1440 1442 1444 1442 1439 1437 1434 1434 1435 1435 1437 1441 1443 1445 1448 1450 1451 1452 1453 1454 1458 1462 1466 1469 1473 1477 1482 1485 1489 1493 1497 1500 1503 1506 1509 1512 1516 1519 1522 1524 1525 1526 1527 1527 1528 1529 1531 1533 1534 1534 1535 1536 1537 1539 1540 1541 1542 1543 1544 1545 1546 1546 1547 1548 1548 1549 1548 1549 1550 1550 1550 1549 1549 1548
1428 1428 1431 1436 1439 1439 1438 1438 1437 1433 1433 1435 1436 1436 1438 1437 1435 1435 1435 1435 1435 1436 1438 1440 1442 1445 1448 1450 1452 1454 1454 1456 1459 1462 1466 1470 1474 1477 1481 1485 1488 1492 1497 1501 1504 1507 1510 1513 1516 1519 1522 1523 1525 1527 1527 1528 1529 1530 1532 1533 1535 1535 1536 1537 1538 1540 1541 1542 1543 1544 1545 1546 1547 1548 1548 1549 1549 1550 1550 1550 1551 1551 1551 1550 1550 1549
1431 1431 1431 1432 1435 1436 1434 1434 1435 1435 1436 1436 1434 1434 1435 1434 1435 1435 1435 1435 1436 1437 1438 1439 1441 1445 1447 1449 1453 1455 1456 1458 1461 1463 1467 1471 1474 1478 1481 1485 1488 1492 1497 1501 1504 1507 1510 1513 1516 1519 1521 1523 1525 1527 1528 1529 1530 1531 1532 1534 1535 1536 1537 1538 1539 1540 1542 1543 1544 1545 1546 1547 1548 1549 1549 1550 1550 1551 1551 1552 1552 1552 1552 1552 1551 1550
1434 1434 1432 1432 1435 1437 1435 1435 1437 1437 1435 1435 1435 1435 1434 1434 1435 1435 1435 1436 1436 1436 1438 1439 1441 1443 1446 1449 1452 1455 1458 1460 1463 1466 1469 1472 1476 1480 1482 1485 1489 1492 1496 1500 1503 1506 1510 1513 1515 1518 1520 1523 1526 1527 1529 1530 1531 1532 1533 1534 1535 1536 1537 1538 1540 1541 1543 1544 1545 1546 1547 1548 1548 1549 1550 1551 1552 1552 1553 1553 1553 1553 1553 1553 1552 1552
1434 1433 1434 1434 1434 1433 1432 1435 1437 1436 1435 1435 1435 1434 1434 1435 1435 1435 1435 1436 1436 1436 1438 1440 1441 1444 1447 1449 1452 1455 1458 1460 1463 1467 1470 1473 1477 1481 1483 1486 1489 1492 1496 1499 1502 1506 1510 1513 1515 1517 1519 1522 1525 1527 1528 1530 1531 1532 1533 1534 1535 1537 1538 1540 1541 1542 1543 1544 1545 1546 1547 1548 1549 1550 1551 1552 1553 1553 1554 1554 1555 1554 1554 1554 1554 1553
1434 1433 1434 1436 1436 1434 1434 1436 1437 1436 1435 1435 1434 1434 1435 1435 1435 1435 1435 1435 1436 1437 1438 1440 1442 1444 1446 1449 1452 1454 1457 1460 1463 1466 1470 1474 1477 1481 1484 1486 1489 1492 1496 1499 1502 1506 1509 1512 1514 1517 1519 1521 1524 1526 1528 1530 1531 1533 1533 1534 1536 1537 1539 1541 1542 1543 1544 1545 1546 1547 1548 1549 1550 1551 1551 1552 1554 1554 1555 1556 1556 1556 1555 1555 1555 1555
1433 1433 1435 1436 1438 1438 1437 1437 1437 1436 1435 1435 1435 1435 1435 1435 1435 1436 1436 1436 1437 1437 1439 1441 1443 1444 1446 1449 1451 1453 1456 1460 1462 1464 1468 1473 1477 1480 1484 1486 1489 1492 1496 1499 1503 1506 1509 1512 1514 1516 1519 1521 1523 1526 1528 1530 1531 1533 1534 1535 1537 1539 1540 1541 1543 1544 1545 1546 1547 1548 1549 1550 1551 1552 1552 1553 1554 1555 1556 1557 1557 1557 1556 1556 1557 1556
1434 1434 1436 1436 1437 1437 1436 1435 1436 1435 1434 1434 1435 1435 1435 1436 1437 1436 1436 1437 1437 1438 1439 1441 1443 1446 1448 1450 1451 1453 1456 1459 1462 1465 1468 1472 1476 1480 1484 1486 1489 1493 1496 1500 1503 1506 1509 1512 1514 1516 1519 1521 1523 1526 1528 1530 1531 1533 1535 1537 1538 1540 1541 1542 1543 1545 1546 1547 1548 1549 1550 1551 1552 1553 1554 1555 1555 1556 1557 1557 1558 1558 1558 1558 1558 1557
1434 1434 1435 1434 1434 1434 1433 1433 1434 1434 1434 1434 1435 1436 1436 1437 1438 1437 1437 1438 1438 1439 1440 1441 1442 1446 1449 1451 1454 1455 1457 1460 1464 1466 1469 1473 1477 1480 1483 1487 1489 1493 1497 1500 1503 1506 1510 1512 1515 1517 1519 1521 1523 1526 1528 1530 1532 1534 1536 1538 1539 1541 1543 1543 1544 1545 1546 1548 1549 1550 1551 1552 1553 1554 1555 1556 1557 1557 1557 1557 1558 1559 1559 1559 1559 1558